Year,Month,Day,Hour,Minute,Value (Times are PST for temperature in C)
2018,06,19,00,00,21.10
2018,06,19,00,01,21.10
2018,06,19,00,02,21.10
2018,06,19,00,03,21.00
2018,06,19,00,04,21.00
2018,06,19,00,05,21.00
2018,06,19,00,06,21.00
2018,06,19,00,07,21.00
2018,06,19,00,08,21.10
2018,06,19,00,09,21.10
2018,06,19,00,10,21.00
2018,06,19,00,11,21.00
2018,06,19,00,12,21.00
2018,06,19,00,13,21.00
2018,06,19,00,14,21.00
2018,06,19,00,15,21.00
2018,06,19,00,16,21.00
2018,06,19,00,17,20.90
2018,06,19,00,18,20.90
2018,06,19,00,19,20.90
2018,06,19,00,20,20.90
2018,06,19,00,21,20.90
2018,06,19,00,22,20.90
2018,06,19,00,23,20.90
2018,06,19,00,24,20.90
2018,06,19,00,25,20.80
2018,06,19,00,26,20.80
2018,06,19,00,27,20.80
2018,06,19,00,28,20.80
2018,06,19,00,29,20.80
2018,06,19,00,30,20.80
2018,06,19,00,31,20.80
2018,06,19,00,32,20.70
2018,06,19,00,33,20.70
2018,06,19,00,34,20.70
2018,06,19,00,35,20.70
2018,06,19,00,36,20.70
2018,06,19,00,37,20.70
2018,06,19,00,38,20.60
2018,06,19,00,39,20.60
2018,06,19,00,40,20.60
2018,06,19,00,41,20.60
2018,06,19,00,42,20.60
2018,06,19,00,43,20.50
2018,06,19,00,44,20.50
2018,06,19,00,45,20.50
2018,06,19,00,46,20.40
2018,06,19,00,47,20.40
2018,06,19,00,48,20.40
2018,06,19,00,49,20.30
2018,06,19,00,50,20.30
2018,06,19,00,51,20.30
2018,06,19,00,52,20.30
2018,06,19,00,53,20.30
2018,06,19,00,54,20.20
2018,06,19,00,55,20.20
2018,06,19,00,56,20.20
2018,06,19,00,57,20.20
2018,06,19,00,58,20.10
2018,06,19,00,59,20.10
2018,06,19,01,00,20.10
2018,06,19,01,01,20.00
2018,06,19,01,02,20.00
2018,06,19,01,03,20.00
2018,06,19,01,04,20.00
2018,06,19,01,05,20.00
2018,06,19,01,06,19.90
2018,06,19,01,07,19.90
2018,06,19,01,08,19.90
2018,06,19,01,09,19.90
2018,06,19,01,10,19.80
2018,06,19,01,11,19.80
2018,06,19,01,12,19.80
2018,06,19,01,13,19.80
2018,06,19,01,14,19.80
2018,06,19,01,15,19.80
2018,06,19,01,16,19.80
2018,06,19,01,17,19.70
2018,06,19,01,18,19.70
2018,06,19,01,19,19.70
2018,06,19,01,20,19.70
2018,06,19,01,21,19.70
2018,06,19,01,22,19.70
2018,06,19,01,23,19.60
2018,06,19,01,24,19.60
2018,06,19,01,25,19.60
2018,06,19,01,26,19.60
2018,06,19,01,27,19.60
2018,06,19,01,28,19.60
2018,06,19,01,29,19.60
2018,06,19,01,30,19.60
2018,06,19,01,31,19.50
2018,06,19,01,32,19.50
2018,06,19,01,33,19.50
2018,06,19,01,34,19.50
2018,06,19,01,35,19.40
2018,06,19,01,36,19.40
2018,06,19,01,37,19.40
2018,06,19,01,38,19.40
2018,06,19,01,39,19.40
2018,06,19,01,40,19.40
2018,06,19,01,41,19.40
2018,06,19,01,42,19.40
2018,06,19,01,43,19.30
2018,06,19,01,44,19.30
2018,06,19,01,45,19.30
2018,06,19,01,46,19.30
2018,06,19,01,47,19.30
2018,06,19,01,48,19.20
2018,06,19,01,49,19.20
2018,06,19,01,50,19.20
2018,06,19,01,51,19.20
2018,06,19,01,52,19.20
2018,06,19,01,53,19.20
2018,06,19,01,54,19.20
2018,06,19,01,55,19.10
2018,06,19,01,56,19.10
2018,06,19,01,57,19.10
2018,06,19,01,58,19.10
2018,06,19,01,59,19.10
2018,06,19,02,00,19.10
2018,06,19,02,01,19.00
2018,06,19,02,02,19.00
2018,06,19,02,03,19.00
2018,06,19,02,04,19.00
2018,06,19,02,05,18.90
2018,06,19,02,06,18.90
2018,06,19,02,07,18.90
2018,06,19,02,08,18.90
2018,06,19,02,09,18.90
2018,06,19,02,10,18.90
2018,06,19,02,11,18.80
2018,06,19,02,12,18.80
2018,06,19,02,13,18.80
2018,06,19,02,14,18.80
2018,06,19,02,15,18.80
2018,06,19,02,16,18.70
2018,06,19,02,17,18.70
2018,06,19,02,18,18.70
2018,06,19,02,19,18.70
2018,06,19,02,20,18.60
2018,06,19,02,21,18.60
2018,06,19,02,22,18.60
2018,06,19,02,23,18.60
2018,06,19,02,24,18.50
2018,06,19,02,25,18.50
2018,06,19,02,26,18.40
2018,06,19,02,27,18.40
2018,06,19,02,28,18.40
2018,06,19,02,29,18.40
2018,06,19,02,30,18.30
2018,06,19,02,31,18.30
2018,06,19,02,32,18.30
2018,06,19,02,33,18.30
2018,06,19,02,34,18.30
2018,06,19,02,35,18.30
2018,06,19,02,36,18.30
2018,06,19,02,37,18.30
2018,06,19,02,38,18.20
2018,06,19,02,39,18.20
2018,06,19,02,40,18.20
2018,06,19,02,41,18.20
2018,06,19,02,42,18.20
2018,06,19,02,43,18.20
2018,06,19,02,44,18.20
2018,06,19,02,45,18.20
2018,06,19,02,46,18.20
2018,06,19,02,47,18.20
2018,06,19,02,48,18.20
2018,06,19,02,49,18.20
2018,06,19,02,50,18.20
2018,06,19,02,51,18.20
2018,06,19,02,52,18.10
2018,06,19,02,53,18.10
2018,06,19,02,54,18.10
2018,06,19,02,55,18.10
2018,06,19,02,56,18.10
2018,06,19,02,57,18.10
2018,06,19,02,58,18.00
2018,06,19,02,59,18.00
2018,06,19,03,00,18.00
2018,06,19,03,01,18.00
2018,06,19,03,02,17.90
2018,06,19,03,03,17.90
2018,06,19,03,04,17.90
2018,06,19,03,05,17.90
2018,06,19,03,06,17.90
2018,06,19,03,07,17.80
2018,06,19,03,08,17.80
2018,06,19,03,09,17.80
2018,06,19,03,10,17.80
2018,06,19,03,11,17.80
2018,06,19,03,12,17.70
2018,06,19,03,13,17.70
2018,06,19,03,14,17.70
2018,06,19,03,15,17.70
2018,06,19,03,16,17.60
2018,06,19,03,17,17.60
2018,06,19,03,18,17.60
2018,06,19,03,19,17.60
2018,06,19,03,20,17.60
2018,06,19,03,21,17.50
2018,06,19,03,22,17.50
2018,06,19,03,23,17.50
2018,06,19,03,24,17.40
2018,06,19,03,25,17.40
2018,06,19,03,26,17.40
2018,06,19,03,27,17.40
2018,06,19,03,28,17.40
2018,06,19,03,29,17.40
2018,06,19,03,30,17.30
2018,06,19,03,31,17.30
2018,06,19,03,32,17.30
2018,06,19,03,33,17.30
2018,06,19,03,34,17.20
2018,06,19,03,35,17.20
2018,06,19,03,36,17.20
2018,06,19,03,37,17.20
2018,06,19,03,38,17.10
2018,06,19,03,39,17.10
2018,06,19,03,40,17.10
2018,06,19,03,41,17.10
2018,06,19,03,42,17.00
2018,06,19,03,43,17.00
2018,06,19,03,44,16.90
2018,06,19,03,45,16.90
2018,06,19,03,46,16.90
2018,06,19,03,47,16.90
2018,06,19,03,48,16.80
2018,06,19,03,49,16.80
2018,06,19,03,50,16.80
2018,06,19,03,51,16.70
2018,06,19,03,52,16.70
2018,06,19,03,53,16.70
2018,06,19,03,54,16.60
2018,06,19,03,55,16.60
2018,06,19,03,56,16.60
2018,06,19,03,57,16.50
2018,06,19,03,58,16.50
2018,06,19,03,59,16.40
2018,06,19,04,00,16.40
2018,06,19,04,01,16.40
2018,06,19,04,02,16.30
2018,06,19,04,03,16.30
2018,06,19,04,04,16.30
2018,06,19,04,05,16.30
2018,06,19,04,06,16.20
2018,06,19,04,07,16.20
2018,06,19,04,08,16.20
2018,06,19,04,09,16.20
2018,06,19,04,10,16.10
2018,06,19,04,11,16.10
2018,06,19,04,12,16.10
2018,06,19,04,13,16.10
2018,06,19,04,14,16.00
2018,06,19,04,15,16.00
2018,06,19,04,16,16.00
2018,06,19,04,17,15.90
2018,06,19,04,18,15.90
2018,06,19,04,19,15.90
2018,06,19,04,20,15.80
2018,06,19,04,21,15.80
2018,06,19,04,22,15.80
2018,06,19,04,23,15.80
2018,06,19,04,24,15.80
2018,06,19,04,25,15.80
2018,06,19,04,26,15.80
2018,06,19,04,27,15.70
2018,06,19,04,28,15.70
2018,06,19,04,29,15.70
2018,06,19,04,30,15.70
2018,06,19,04,31,15.70
2018,06,19,04,32,15.70
2018,06,19,04,33,15.60
2018,06,19,04,34,15.60
2018,06,19,04,35,15.60
2018,06,19,04,36,15.60
2018,06,19,04,37,15.60
2018,06,19,04,38,15.60
2018,06,19,04,39,15.50
2018,06,19,04,40,15.50
2018,06,19,04,41,15.50
2018,06,19,04,42,15.50
2018,06,19,04,43,15.40
2018,06,19,04,44,15.40
2018,06,19,04,45,15.40
2018,06,19,04,46,15.40
2018,06,19,04,47,15.40
2018,06,19,04,48,15.30
2018,06,19,04,49,15.30
2018,06,19,04,50,15.30
2018,06,19,04,51,15.30
2018,06,19,04,52,15.30
2018,06,19,04,53,15.20
2018,06,19,04,54,15.20
2018,06,19,04,55,15.20
2018,06,19,04,56,15.10
2018,06,19,04,57,15.10
2018,06,19,04,58,15.00
2018,06,19,04,59,15.00
2018,06,19,05,00,15.00
2018,06,19,05,01,15.00
2018,06,19,05,02,15.00
2018,06,19,05,03,15.00
2018,06,19,05,04,15.00
2018,06,19,05,05,15.00
2018,06,19,05,06,15.00
2018,06,19,05,07,15.00
2018,06,19,05,08,15.00
2018,06,19,05,09,15.00
2018,06,19,05,10,15.00
2018,06,19,05,11,15.00
2018,06,19,05,12,15.00
2018,06,19,05,13,15.00
2018,06,19,05,14,15.00
2018,06,19,05,15,15.00
2018,06,19,05,16,15.00
2018,06,19,05,17,15.00
2018,06,19,05,18,15.00
2018,06,19,05,19,15.00
2018,06,19,05,20,15.00
2018,06,19,05,21,15.00
2018,06,19,05,22,15.00
2018,06,19,05,23,15.00
2018,06,19,05,24,15.00
2018,06,19,05,25,15.00
2018,06,19,05,26,15.00
2018,06,19,05,27,15.00
2018,06,19,05,28,15.00
2018,06,19,05,29,15.00
2018,06,19,05,30,15.00
2018,06,19,05,31,15.00
2018,06,19,05,32,15.00
2018,06,19,05,33,15.00
2018,06,19,05,34,15.00
2018,06,19,05,35,15.00
2018,06,19,05,36,15.00
2018,06,19,05,37,15.00
2018,06,19,05,38,15.00
2018,06,19,05,39,15.00
2018,06,19,05,40,15.00
2018,06,19,05,41,15.00
2018,06,19,05,42,15.00
2018,06,19,05,43,15.00
2018,06,19,05,44,15.00
2018,06,19,05,45,15.00
2018,06,19,05,46,15.00
2018,06,19,05,47,15.00
2018,06,19,05,48,15.00
2018,06,19,05,49,15.00
2018,06,19,05,50,15.00
2018,06,19,05,51,15.00
2018,06,19,05,52,15.00
2018,06,19,05,53,15.00
2018,06,19,05,54,15.00
2018,06,19,05,55,15.00
2018,06,19,05,56,15.00
2018,06,19,05,57,15.00
2018,06,19,05,58,15.00
2018,06,19,05,59,15.00
2018,06,19,06,00,15.00
2018,06,19,06,01,15.00
2018,06,19,06,02,15.00
2018,06,19,06,03,15.00
2018,06,19,06,04,15.00
2018,06,19,06,05,15.00
2018,06,19,06,06,15.00
2018,06,19,06,07,15.00
2018,06,19,06,08,15.00
2018,06,19,06,09,14.90
2018,06,19,06,10,14.90
2018,06,19,06,11,15.00
2018,06,19,06,12,14.90
2018,06,19,06,13,14.90
2018,06,19,06,14,14.90
2018,06,19,06,15,15.00
2018,06,19,06,16,14.90
2018,06,19,06,17,15.00
2018,06,19,06,18,15.00
2018,06,19,06,19,15.00
2018,06,19,06,20,15.00
2018,06,19,06,21,15.00
2018,06,19,06,22,15.00
2018,06,19,06,23,15.00
2018,06,19,06,24,15.00
2018,06,19,06,25,15.00
2018,06,19,06,26,15.00
2018,06,19,06,27,15.00
2018,06,19,06,28,15.00
2018,06,19,06,29,14.90
2018,06,19,06,30,15.00
2018,06,19,06,31,15.00
2018,06,19,06,32,15.00
2018,06,19,06,33,15.00
2018,06,19,06,34,15.00
2018,06,19,06,35,15.00
2018,06,19,06,36,15.00
2018,06,19,06,37,15.00
2018,06,19,06,38,15.00
2018,06,19,06,39,15.00
2018,06,19,06,40,15.00
2018,06,19,06,41,15.00
2018,06,19,06,42,15.00
2018,06,19,06,43,15.00
2018,06,19,06,44,15.00
2018,06,19,06,45,15.00
2018,06,19,06,46,15.00
2018,06,19,06,47,15.00
2018,06,19,06,48,15.00
2018,06,19,06,49,15.00
2018,06,19,06,50,15.00
2018,06,19,06,51,15.00
2018,06,19,06,52,15.00
2018,06,19,06,53,15.00
2018,06,19,06,54,15.00
2018,06,19,06,55,15.00
2018,06,19,06,56,15.00
2018,06,19,06,57,15.00
2018,06,19,06,58,15.00
2018,06,19,06,59,15.00
2018,06,19,07,00,15.00
2018,06,19,07,01,15.00
2018,06,19,07,02,15.00
2018,06,19,07,03,15.10
2018,06,19,07,04,15.20
2018,06,19,07,05,15.20
2018,06,19,07,06,15.20
2018,06,19,07,07,15.30
2018,06,19,07,08,15.30
2018,06,19,07,09,15.30
2018,06,19,07,10,15.40
2018,06,19,07,11,15.40
2018,06,19,07,12,15.40
2018,06,19,07,13,15.50
2018,06,19,07,14,15.60
2018,06,19,07,15,15.60
2018,06,19,07,16,15.60
2018,06,19,07,17,15.70
2018,06,19,07,18,15.70
2018,06,19,07,19,15.80
2018,06,19,07,20,15.80
2018,06,19,07,21,15.80
2018,06,19,07,22,15.90
2018,06,19,07,23,15.90
2018,06,19,07,24,16.00
2018,06,19,07,25,16.00
2018,06,19,07,26,16.10
2018,06,19,07,27,16.10
2018,06,19,07,28,16.10
2018,06,19,07,29,16.20
2018,06,19,07,30,16.20
2018,06,19,07,31,16.20
2018,06,19,07,32,16.30
2018,06,19,07,33,16.30
2018,06,19,07,34,16.40
2018,06,19,07,35,16.40
2018,06,19,07,36,16.50
2018,06,19,07,37,16.60
2018,06,19,07,38,16.60
2018,06,19,07,39,16.70
2018,06,19,07,40,16.70
2018,06,19,07,41,16.80
2018,06,19,07,42,16.80
2018,06,19,07,43,16.90
2018,06,19,07,44,16.90
2018,06,19,07,45,17.00
2018,06,19,07,46,17.10
2018,06,19,07,47,17.10
2018,06,19,07,48,17.20
2018,06,19,07,49,17.20
2018,06,19,07,50,17.30
2018,06,19,07,51,17.30
2018,06,19,07,52,17.40
2018,06,19,07,53,17.40
2018,06,19,07,54,17.60
2018,06,19,07,55,17.60
2018,06,19,07,56,17.70
2018,06,19,07,57,17.70
2018,06,19,07,58,17.80
2018,06,19,07,59,17.80
2018,06,19,08,00,17.90
2018,06,19,08,01,17.90
2018,06,19,08,02,17.90
2018,06,19,08,03,18.00
2018,06,19,08,04,18.00
2018,06,19,08,05,18.10
2018,06,19,08,06,18.10
2018,06,19,08,07,18.20
2018,06,19,08,08,18.20
2018,06,19,08,09,18.30
2018,06,19,08,10,18.30
2018,06,19,08,11,18.30
2018,06,19,08,12,18.40
2018,06,19,08,13,18.50
2018,06,19,08,14,18.50
2018,06,19,08,15,18.60
2018,06,19,08,16,18.70
2018,06,19,08,17,18.70
2018,06,19,08,18,18.80
2018,06,19,08,19,18.80
2018,06,19,08,20,18.80
2018,06,19,08,21,18.90
2018,06,19,08,22,18.90
2018,06,19,08,23,18.90
2018,06,19,08,24,19.00
2018,06,19,08,25,19.00
2018,06,19,08,26,19.00
2018,06,19,08,27,19.10
2018,06,19,08,28,19.20
2018,06,19,08,29,19.20
2018,06,19,08,30,19.20
2018,06,19,08,31,19.30
2018,06,19,08,32,19.40
2018,06,19,08,33,19.40
2018,06,19,08,34,19.50
2018,06,19,08,35,19.60
2018,06,19,08,36,19.60
2018,06,19,08,37,19.70
2018,06,19,08,38,19.70
2018,06,19,08,39,19.80
2018,06,19,08,40,19.90
2018,06,19,08,41,20.00
2018,06,19,08,42,20.00
2018,06,19,08,43,20.00
2018,06,19,08,44,20.10
2018,06,19,08,45,20.20
2018,06,19,08,46,20.20
2018,06,19,08,47,20.30
2018,06,19,08,48,20.40
2018,06,19,08,49,20.50
2018,06,19,08,50,20.50
2018,06,19,08,51,20.60
2018,06,19,08,52,20.60
2018,06,19,08,53,20.60
2018,06,19,08,54,20.60
2018,06,19,08,55,20.60
2018,06,19,08,56,20.60
2018,06,19,08,57,20.60
2018,06,19,08,58,20.60
2018,06,19,08,59,20.60
2018,06,19,09,00,20.60
2018,06,19,09,01,20.70
2018,06,19,09,02,20.70
2018,06,19,09,03,20.80
2018,06,19,09,04,20.80
2018,06,19,09,05,20.80
2018,06,19,09,06,20.80
2018,06,19,09,07,20.80
2018,06,19,09,08,20.80
2018,06,19,09,09,20.80
2018,06,19,09,10,20.80
2018,06,19,09,11,20.80
2018,06,19,09,12,20.80
2018,06,19,09,13,20.80
2018,06,19,09,14,20.90
2018,06,19,09,15,20.90
2018,06,19,09,16,20.90
2018,06,19,09,17,20.90
2018,06,19,09,18,20.90
2018,06,19,09,19,20.90
2018,06,19,09,20,20.90
2018,06,19,09,21,20.80
2018,06,19,09,22,20.80
2018,06,19,09,23,20.80
2018,06,19,09,24,20.80
2018,06,19,09,25,20.80
2018,06,19,09,26,20.70
2018,06,19,09,27,20.70
2018,06,19,09,28,20.70
2018,06,19,09,29,20.70
2018,06,19,09,30,20.70
2018,06,19,09,31,20.60
2018,06,19,09,32,20.60
2018,06,19,09,33,20.60
2018,06,19,09,34,20.60
2018,06,19,09,35,20.60
2018,06,19,09,36,20.70
2018,06,19,09,37,20.70
2018,06,19,09,38,20.80
2018,06,19,09,39,20.80
2018,06,19,09,40,20.80
2018,06,19,09,41,20.90
2018,06,19,09,42,20.90
2018,06,19,09,43,21.00
2018,06,19,09,44,21.00
2018,06,19,09,45,21.10
2018,06,19,09,46,21.10
2018,06,19,09,47,21.10
2018,06,19,09,48,21.20
2018,06,19,09,49,21.30
2018,06,19,09,50,21.40
2018,06,19,09,51,21.50
2018,06,19,09,52,21.60
2018,06,19,09,53,21.80
2018,06,19,09,54,21.80
2018,06,19,09,55,21.80
2018,06,19,09,56,21.90
2018,06,19,09,57,21.90
2018,06,19,09,58,21.90
2018,06,19,09,59,21.90
2018,06,19,10,00,22.00
2018,06,19,10,01,21.90
2018,06,19,10,02,22.00
2018,06,19,10,03,22.00
2018,06,19,10,04,22.10
2018,06,19,10,05,22.10
2018,06,19,10,06,22.10
2018,06,19,10,07,22.10
2018,06,19,10,08,22.10
2018,06,19,10,09,22.20
2018,06,19,10,10,22.20
2018,06,19,10,11,22.30
2018,06,19,10,12,22.30
2018,06,19,10,13,22.40
2018,06,19,10,14,22.40
2018,06,19,10,15,22.50
2018,06,19,10,16,22.60
2018,06,19,10,17,22.70
2018,06,19,10,18,22.70
2018,06,19,10,19,22.70
2018,06,19,10,20,22.70
2018,06,19,10,21,22.70
2018,06,19,10,22,22.60
2018,06,19,10,23,22.60
2018,06,19,10,24,22.60
2018,06,19,10,25,22.70
2018,06,19,10,26,22.70
2018,06,19,10,27,22.70
2018,06,19,10,28,22.70
2018,06,19,10,29,22.70
2018,06,19,10,30,22.70
2018,06,19,10,31,22.70
2018,06,19,10,32,22.80
2018,06,19,10,33,22.80
2018,06,19,10,34,22.70
2018,06,19,10,35,22.70
2018,06,19,10,36,22.80
2018,06,19,10,37,22.80
2018,06,19,10,38,22.80
2018,06,19,10,39,22.80
2018,06,19,10,40,22.80
2018,06,19,10,41,22.90
2018,06,19,10,42,22.90
2018,06,19,10,43,22.90
2018,06,19,10,44,23.00
2018,06,19,10,45,23.00
2018,06,19,10,46,22.90
2018,06,19,10,47,22.90
2018,06,19,10,48,22.80
2018,06,19,10,49,22.90
2018,06,19,10,50,22.90
2018,06,19,10,51,23.00
2018,06,19,10,52,23.00
2018,06,19,10,53,23.10
2018,06,19,10,54,23.20
2018,06,19,10,55,23.20
2018,06,19,10,56,23.30
2018,06,19,10,57,23.30
2018,06,19,10,58,23.30
2018,06,19,10,59,23.30
2018,06,19,11,00,23.40
2018,06,19,11,01,23.40
2018,06,19,11,02,23.40
2018,06,19,11,03,23.40
2018,06,19,11,04,23.40
2018,06,19,11,05,23.30
2018,06,19,11,06,23.20
2018,06,19,11,07,23.20
2018,06,19,11,08,23.10
2018,06,19,11,09,23.10
2018,06,19,11,10,23.00
2018,06,19,11,11,23.00
2018,06,19,11,12,22.90
2018,06,19,11,13,23.00
2018,06,19,11,14,23.00
2018,06,19,11,15,22.90
2018,06,19,11,16,22.90
2018,06,19,11,17,22.90
2018,06,19,11,18,22.90
2018,06,19,11,19,22.90
2018,06,19,11,20,22.90
2018,06,19,11,21,23.00
2018,06,19,11,22,23.00
2018,06,19,11,23,23.00
2018,06,19,11,24,23.00
2018,06,19,11,25,23.10
2018,06,19,11,26,23.10
2018,06,19,11,27,23.10
2018,06,19,11,28,23.10
2018,06,19,11,29,23.10
2018,06,19,11,30,23.10
2018,06,19,11,31,23.10
2018,06,19,11,32,23.10
2018,06,19,11,33,23.10
2018,06,19,11,34,23.10
2018,06,19,11,35,23.00
2018,06,19,11,36,22.90
2018,06,19,11,37,22.80
2018,06,19,11,38,22.70
2018,06,19,11,39,22.60
2018,06,19,11,40,22.60
2018,06,19,11,41,22.50
2018,06,19,11,42,22.50
2018,06,19,11,43,22.60
2018,06,19,11,44,22.60
2018,06,19,11,45,22.70
2018,06,19,11,46,22.70
2018,06,19,11,47,22.70
2018,06,19,11,48,22.70
2018,06,19,11,49,22.80
2018,06,19,11,50,22.80
2018,06,19,11,51,22.80
2018,06,19,11,52,22.80
2018,06,19,11,53,22.80
2018,06,19,11,54,22.90
2018,06,19,11,55,22.90
2018,06,19,11,56,22.90
2018,06,19,11,57,22.90
2018,06,19,11,58,23.00
2018,06,19,11,59,23.00
2018,06,19,12,00,23.10
2018,06,19,12,01,23.10
2018,06,19,12,02,23.10
2018,06,19,12,03,23.20
2018,06,19,12,04,23.20
2018,06,19,12,05,23.20
2018,06,19,12,06,23.20
2018,06,19,12,07,23.20
2018,06,19,12,08,23.10
2018,06,19,12,09,23.10
2018,06,19,12,10,23.00
2018,06,19,12,11,22.90
2018,06,19,12,12,22.90
2018,06,19,12,13,22.90
2018,06,19,12,14,22.80
2018,06,19,12,15,22.70
2018,06,19,12,16,22.70
2018,06,19,12,17,22.60
2018,06,19,12,18,22.60
2018,06,19,12,19,22.60
2018,06,19,12,20,22.60
2018,06,19,12,21,22.60
2018,06,19,12,22,22.70
2018,06,19,12,23,22.70
2018,06,19,12,24,22.70
2018,06,19,12,25,22.70
2018,06,19,12,26,22.70
2018,06,19,12,27,22.60
2018,06,19,12,28,22.60
2018,06,19,12,29,22.50
2018,06,19,12,30,22.50
2018,06,19,12,31,22.50
2018,06,19,12,32,22.50
2018,06,19,12,33,22.50
2018,06,19,12,34,22.60
2018,06,19,12,35,22.60
2018,06,19,12,36,22.70
2018,06,19,12,37,22.80
2018,06,19,12,38,22.80
2018,06,19,12,39,22.90
2018,06,19,12,40,23.00
2018,06,19,12,41,23.00
2018,06,19,12,42,23.00
2018,06,19,12,43,23.10
2018,06,19,12,44,23.00
2018,06,19,12,45,23.00
2018,06,19,12,46,23.10
2018,06,19,12,47,23.10
2018,06,19,12,48,23.10
2018,06,19,12,49,23.00
2018,06,19,12,50,23.00
2018,06,19,12,51,22.90
2018,06,19,12,52,22.90
2018,06,19,12,53,22.90
2018,06,19,12,54,22.80
2018,06,19,12,55,22.80
2018,06,19,12,56,22.80
2018,06,19,12,57,22.80
2018,06,19,12,58,22.80
2018,06,19,12,59,22.80
2018,06,19,13,00,22.80
2018,06,19,13,01,22.80
2018,06,19,13,02,22.80
2018,06,19,13,03,22.80
2018,06,19,13,04,22.80
2018,06,19,13,05,22.90
2018,06,19,13,06,22.90
2018,06,19,13,07,22.90
2018,06,19,13,08,23.00
2018,06,19,13,09,23.00
2018,06,19,13,10,23.10
2018,06,19,13,11,23.20
2018,06,19,13,12,23.20
2018,06,19,13,13,23.30
2018,06,19,13,14,23.30
2018,06,19,13,15,23.40
2018,06,19,13,16,23.30
2018,06,19,13,17,23.30
2018,06,19,13,18,23.30
2018,06,19,13,19,23.30
2018,06,19,13,20,23.30
2018,06,19,13,21,23.30
2018,06,19,13,22,23.30
2018,06,19,13,23,23.40
2018,06,19,13,24,23.40
2018,06,19,13,25,23.40
2018,06,19,13,26,23.40
2018,06,19,13,27,23.50
2018,06,19,13,28,23.50
2018,06,19,13,29,23.60
2018,06,19,13,30,23.60
2018,06,19,13,31,23.70
2018,06,19,13,32,23.70
2018,06,19,13,33,23.80
2018,06,19,13,34,23.80
2018,06,19,13,35,23.90
2018,06,19,13,36,24.00
2018,06,19,13,37,24.10
2018,06,19,13,38,24.20
2018,06,19,13,39,24.30
2018,06,19,13,40,24.30
2018,06,19,13,41,24.50
2018,06,19,13,42,24.50
2018,06,19,13,43,24.40
2018,06,19,13,44,24.30
2018,06,19,13,45,24.20
2018,06,19,13,46,24.10
2018,06,19,13,47,24.10
2018,06,19,13,48,24.00
2018,06,19,13,49,23.90
2018,06,19,13,50,23.90
2018,06,19,13,51,23.80
2018,06,19,13,52,23.70
2018,06,19,13,53,23.60
2018,06,19,13,54,23.50
2018,06,19,13,55,23.50
2018,06,19,13,56,23.40
2018,06,19,13,57,23.30
2018,06,19,13,58,23.20
2018,06,19,13,59,23.10
2018,06,19,14,00,23.00
2018,06,19,14,01,23.00
2018,06,19,14,02,23.00
2018,06,19,14,03,22.90
2018,06,19,14,04,22.90
2018,06,19,14,05,22.80
2018,06,19,14,06,22.80
2018,06,19,14,07,22.70
2018,06,19,14,08,22.70
2018,06,19,14,09,22.60
2018,06,19,14,10,22.60
2018,06,19,14,11,22.60
2018,06,19,14,12,22.60
2018,06,19,14,13,22.60
2018,06,19,14,14,22.60
2018,06,19,14,15,22.70
2018,06,19,14,16,22.70
2018,06,19,14,17,22.80
2018,06,19,14,18,22.90
2018,06,19,14,19,23.00
2018,06,19,14,20,23.20
2018,06,19,14,21,23.30
2018,06,19,14,22,23.40
2018,06,19,14,23,23.60
2018,06,19,14,24,23.70
2018,06,19,14,25,23.80
2018,06,19,14,26,24.00
2018,06,19,14,27,24.10
2018,06,19,14,28,24.20
2018,06,19,14,29,24.30
2018,06,19,14,30,24.40
2018,06,19,14,31,24.50
2018,06,19,14,32,24.60
2018,06,19,14,33,24.70
2018,06,19,14,34,24.80
2018,06,19,14,35,24.80
2018,06,19,14,36,24.80
2018,06,19,14,37,24.90
2018,06,19,14,38,24.90
2018,06,19,14,39,25.00
2018,06,19,14,40,25.00
2018,06,19,14,41,25.00
2018,06,19,14,42,24.90
2018,06,19,14,43,24.80
2018,06,19,14,44,24.70
2018,06,19,14,45,24.60
2018,06,19,14,46,24.50
2018,06,19,14,47,24.40
2018,06,19,14,48,24.30
2018,06,19,14,49,24.30
2018,06,19,14,50,24.20
2018,06,19,14,51,24.20
2018,06,19,14,52,24.20
2018,06,19,14,53,24.30
2018,06,19,14,54,24.30
2018,06,19,14,55,24.30
2018,06,19,14,56,24.30
2018,06,19,14,57,24.30
2018,06,19,14,58,24.30
2018,06,19,14,59,24.40
2018,06,19,15,00,24.50
2018,06,19,15,01,24.50
2018,06,19,15,02,24.60
2018,06,19,15,03,24.70
2018,06,19,15,04,24.80
2018,06,19,15,05,24.90
2018,06,19,15,06,25.00
2018,06,19,15,07,25.00
2018,06,19,15,08,25.10
2018,06,19,15,09,25.20
2018,06,19,15,10,25.20
2018,06,19,15,11,25.20
2018,06,19,15,12,25.30
2018,06,19,15,13,25.30
2018,06,19,15,14,25.40
2018,06,19,15,15,25.50
2018,06,19,15,16,25.60
2018,06,19,15,17,25.70
2018,06,19,15,18,25.70
2018,06,19,15,19,25.70
2018,06,19,15,20,25.90
2018,06,19,15,21,25.90
2018,06,19,15,22,25.90
2018,06,19,15,23,25.90
2018,06,19,15,24,25.90
2018,06,19,15,25,25.90
2018,06,19,15,26,25.90
2018,06,19,15,27,26.00
2018,06,19,15,28,26.10
2018,06,19,15,29,26.10
2018,06,19,15,30,26.10
2018,06,19,15,31,26.10
2018,06,19,15,32,26.10
2018,06,19,15,33,26.20
2018,06,19,15,34,26.20
2018,06,19,15,35,26.30
2018,06,19,15,36,26.30
2018,06,19,15,37,26.30
2018,06,19,15,38,26.30
2018,06,19,15,39,26.30
2018,06,19,15,40,26.30
2018,06,19,15,41,26.40
2018,06,19,15,42,26.40
2018,06,19,15,43,26.40
2018,06,19,15,44,26.50
2018,06,19,15,45,26.50
2018,06,19,15,46,26.60
2018,06,19,15,47,26.60
2018,06,19,15,48,26.60
2018,06,19,15,49,26.60
2018,06,19,15,50,26.60
2018,06,19,15,51,26.60
2018,06,19,15,52,26.60
2018,06,19,15,53,26.60
2018,06,19,15,54,26.60
2018,06,19,15,55,26.60
2018,06,19,15,56,26.60
2018,06,19,15,57,26.70
2018,06,19,15,58,26.70
2018,06,19,15,59,26.70
2018,06,19,16,00,26.70
2018,06,19,16,01,26.70
2018,06,19,16,02,26.80
2018,06,19,16,03,26.80
2018,06,19,16,04,26.70
2018,06,19,16,05,26.70
2018,06,19,16,06,26.70
2018,06,19,16,07,26.70
2018,06,19,16,08,26.70
2018,06,19,16,09,26.60
2018,06,19,16,10,26.60
2018,06,19,16,11,26.60
2018,06,19,16,12,26.60
2018,06,19,16,13,26.60
2018,06,19,16,14,26.60
2018,06,19,16,15,26.60
2018,06,19,16,16,26.60
2018,06,19,16,17,26.60
2018,06,19,16,18,26.50
2018,06,19,16,19,26.50
2018,06,19,16,20,26.40
2018,06,19,16,21,26.30
2018,06,19,16,22,26.30
2018,06,19,16,23,26.30
2018,06,19,16,24,26.30
2018,06,19,16,25,26.20
2018,06,19,16,26,26.20
2018,06,19,16,27,26.30
2018,06,19,16,28,26.30
2018,06,19,16,29,26.40
2018,06,19,16,30,26.50
2018,06,19,16,31,26.50
2018,06,19,16,32,26.60
2018,06,19,16,33,26.70
2018,06,19,16,34,26.80
2018,06,19,16,35,26.90
2018,06,19,16,36,26.90
2018,06,19,16,37,27.00
2018,06,19,16,38,27.00
2018,06,19,16,39,27.00
2018,06,19,16,40,27.00
2018,06,19,16,41,27.00
2018,06,19,16,42,27.00
2018,06,19,16,43,27.10
2018,06,19,16,44,27.10
2018,06,19,16,45,27.00
2018,06,19,16,46,27.00
2018,06,19,16,47,26.90
2018,06,19,16,48,26.90
2018,06,19,16,49,26.90
2018,06,19,16,50,27.00
2018,06,19,16,51,27.00
2018,06,19,16,52,27.10
2018,06,19,16,53,27.10
2018,06,19,16,54,27.10
2018,06,19,16,55,27.00
2018,06,19,16,56,27.00
2018,06,19,16,57,27.00
2018,06,19,16,58,27.00
2018,06,19,16,59,26.90
2018,06,19,17,00,26.90
2018,06,19,17,01,26.90
2018,06,19,17,02,26.90
2018,06,19,17,03,26.90
2018,06,19,17,04,26.90
2018,06,19,17,05,26.90
2018,06,19,17,06,26.90
2018,06,19,17,07,26.90
2018,06,19,17,08,26.80
2018,06,19,17,09,26.70
2018,06,19,17,10,26.60
2018,06,19,17,11,26.60
2018,06,19,17,12,26.60
2018,06,19,17,13,26.60
2018,06,19,17,14,26.60
2018,06,19,17,15,26.70
2018,06,19,17,16,26.70
2018,06,19,17,17,26.80
2018,06,19,17,18,26.80
2018,06,19,17,19,26.80